VOZ828 YSSY-YMML

Flight info

Callsign VOZ828
Flight time 1h 13m
Altitude 34000
Route WOL2 WOL DCT CB DCT BOYSE BOYS8A
Aircraft A332/M-VGDW/C

Departure

Time 2026-05-06 00:25
Airport Sydney Kingsford Smith International Airport (YSSY)

Arrival

Time 2026-05-06 01:39
Airport Melbourne Airport (YMML)
Time Latitude Longitude Altitude Speed Heading
2026-05-05 23:42 -33.93152 151.17858 34 ft 0 kts 190°
2026-05-06 00:06 -33.93139 151.17861 33 ft 2 kts 194°
2026-05-06 00:06 -33.93123 151.17866 33 ft 2 kts 199°
2026-05-06 00:07 -33.93108 151.17873 32 ft 2 kts 207°
2026-05-06 00:07 -33.93094 151.17884 31 ft 2 kts 223°
2026-05-06 00:07 -33.93084 151.17899 32 ft 2 kts 248°
2026-05-06 00:07 -33.93080 151.17918 31 ft 2 kts 272°
2026-05-06 00:08 -33.93081 151.17929 31 ft 0 kts 279°
2026-05-06 00:08 -33.93081 151.17930 34 ft 0 kts 280°
2026-05-06 00:10 -33.93080 151.17924 34 ft 2 kts 280°
2026-05-06 00:11 -33.93076 151.17900 34 ft 4 kts 280°
2026-05-06 00:11 -33.93071 151.17856 34 ft 6 kts 279°
2026-05-06 00:11 -33.93062 151.17797 34 ft 8 kts 281°
2026-05-06 00:11 -33.93046 151.17727 34 ft 9 kts 285°
2026-05-06 00:12 -33.93017 151.17656 34 ft 10 kts 290°
2026-05-06 00:12 -33.93012 151.17572 34 ft 10 kts 248°
2026-05-06 00:12 -33.93058 151.17514 34 ft 10 kts 225°
2026-05-06 00:12 -33.93116 151.17441 26 ft 15 kts 193°
2026-05-06 00:13 -33.93227 151.17463 26 ft 17 kts 167°
2026-05-06 00:13 -33.93347 151.17494 30 ft 18 kts 167°
2026-05-06 00:13 -33.93473 151.17503 25 ft 19 kts 175°
2026-05-06 00:13 -33.93609 151.17534 20 ft 21 kts 166°
2026-05-06 00:14 -33.93753 151.17572 22 ft 21 kts 168°
2026-05-06 00:14 -33.93900 151.17610 24 ft 22 kts 168°
2026-05-06 00:14 -33.94045 151.17648 28 ft 20 kts 167°
2026-05-06 00:14 -33.94180 151.17687 30 ft 21 kts 164°
2026-05-06 00:15 -33.94322 151.17732 28 ft 21 kts 166°
2026-05-06 00:15 -33.94463 151.17775 27 ft 21 kts 165°
2026-05-06 00:15 -33.94605 151.17817 28 ft 20 kts 171°
2026-05-06 00:15 -33.94748 151.17852 29 ft 21 kts 168°
2026-05-06 00:16 -33.94888 151.17889 29 ft 20 kts 168°
2026-05-06 00:16 -33.95002 151.17918 28 ft 13 kts 168°
2026-05-06 00:16 -33.95090 151.17941 29 ft 13 kts 167°
2026-05-06 00:16 -33.95186 151.17945 28 ft 15 kts 205°
2026-05-06 00:17 -33.95226 151.17839 27 ft 15 kts 256°
2026-05-06 00:17 -33.95249 151.17715 30 ft 15 kts 259°
2026-05-06 00:17 -33.95290 151.17598 25 ft 16 kts 207°
2026-05-06 00:17 -33.95398 151.17593 24 ft 15 kts 168°
2026-05-06 00:18 -33.95505 151.17620 28 ft 16 kts 171°
2026-05-06 00:18 -33.95612 151.17651 26 ft 15 kts 166°
2026-05-06 00:18 -33.95714 151.17675 28 ft 15 kts 168°
2026-05-06 00:18 -33.95806 151.17698 27 ft 13 kts 165°
2026-05-06 00:19 -33.95872 151.17718 30 ft 15 kts 168°
2026-05-06 00:19 -33.96019 151.17754 28 ft 16 kts 168°
2026-05-06 00:19 -33.96130 151.17785 28 ft 17 kts 166°
2026-05-06 00:19 -33.96245 151.17815 31 ft 14 kts 168°
2026-05-06 00:20 -33.96337 151.17837 26 ft 13 kts 168°
2026-05-06 00:20 -33.96412 151.17864 27 ft 10 kts 149°
2026-05-06 00:20 -33.96440 151.17904 27 ft 1 kts 107°
2026-05-06 00:20 -33.96441 151.17920 27 ft 3 kts 91°
2026-05-06 00:21 -33.96439 151.17934 27 ft 0 kts 81°
2026-05-06 00:22 -33.96438 151.17937 27 ft 1 kts 81°
2026-05-06 00:22 -33.96436 151.17958 27 ft 4 kts 81°
2026-05-06 00:22 -33.96430 151.17996 28 ft 6 kts 79°
2026-05-06 00:22 -33.96411 151.18042 28 ft 6 kts 41°
2026-05-06 00:23 -33.96364 151.18048 28 ft 8 kts 352°
2026-05-06 00:23 -33.96345 151.18044 28 ft 0 kts 348°
2026-05-06 00:23 -33.96345 151.18043 28 ft 0 kts 348°
2026-05-06 00:24 -33.96344 151.18043 28 ft 0 kts 348°
2026-05-06 00:24 -33.96340 151.18042 28 ft 2 kts 348°
2026-05-06 00:24 -33.96181 151.18001 26 ft 53 kts 348°
2026-05-06 00:25 -33.95620 151.17855 26 ft 110 kts 348°
2026-05-06 00:25 -33.94702 151.17618 29 ft 159 kts 347°
2026-05-06 00:25 -33.93527 151.17322 369 ft 182 kts 347°
2026-05-06 00:25 -33.92208 151.16978 836 ft 206 kts 347°
2026-05-06 00:26 -33.90817 151.16353 1292 ft 224 kts 321°
2026-05-06 00:26 -33.89867 151.14807 1789 ft 239 kts 295°
2026-05-06 00:26 -33.89155 151.12926 2299 ft 253 kts 294°
2026-05-06 00:26 -33.88389 151.10961 2795 ft 266 kts 297°
2026-05-06 00:27 -33.87531 151.08927 3298 ft 279 kts 299°
2026-05-06 00:27 -33.86624 151.06889 3801 ft 268 kts 300°
2026-05-06 00:27 -33.85789 151.05053 4282 ft 232 kts 301°
2026-05-06 00:27 -33.85022 151.03393 4822 ft 233 kts 302°
2026-05-06 00:28 -33.84273 151.01585 5320 ft 251 kts 290°
2026-05-06 00:28 -33.84007 150.99438 5825 ft 270 kts 274°
2026-05-06 00:28 -33.84022 150.97115 6339 ft 286 kts 270°
2026-05-06 00:28 -33.84103 150.94659 6827 ft 302 kts 269°
2026-05-06 00:29 -33.84258 150.92086 7312 ft 315 kts 262°
2026-05-06 00:29 -33.85098 150.89766 7791 ft 295 kts 231°
2026-05-06 00:29 -33.86709 150.88378 8300 ft 281 kts 201°
2026-05-06 00:29 -33.88582 150.87915 8819 ft 273 kts 181°
2026-05-06 00:30 -33.90439 150.88229 9333 ft 269 kts 161°
2026-05-06 00:30 -33.92084 150.89286 9857 ft 271 kts 142°
2026-05-06 00:30 -33.93480 150.90860 10353 ft 280 kts 134°
2026-05-06 00:30 -33.94837 150.92624 10835 ft 292 kts 133°
2026-05-06 00:31 -33.96249 150.94444 11303 ft 301 kts 136°
2026-05-06 00:31 -33.97951 150.95972 11790 ft 311 kts 154°
2026-05-06 00:31 -34.00011 150.96724 12285 ft 318 kts 176°
2026-05-06 00:31 -34.02241 150.96539 12761 ft 326 kts 193°
2026-05-06 00:32 -34.04482 150.95869 13238 ft 336 kts 197°
2026-05-06 00:32 -34.06757 150.95106 13699 ft 342 kts 198°
2026-05-06 00:32 -34.09064 150.94333 14153 ft 345 kts 198°
2026-05-06 00:32 -34.11385 150.93566 14582 ft 347 kts 198°
2026-05-06 00:33 -34.13731 150.92798 15014 ft 349 kts 197°
2026-05-06 00:33 -34.16083 150.92031 15449 ft 351 kts 197°
2026-05-06 00:33 -34.18447 150.91263 15882 ft 353 kts 197°
2026-05-06 00:33 -34.20796 150.90501 16337 ft 354 kts 197°
2026-05-06 00:34 -34.23185 150.89725 16791 ft 356 kts 197°
2026-05-06 00:34 -34.25591 150.88944 17253 ft 359 kts 197°
2026-05-06 00:34 -34.28011 150.88160 17735 ft 361 kts 197°
2026-05-06 00:34 -34.30446 150.87370 18217 ft 363 kts 197°
2026-05-06 00:35 -34.32895 150.86575 18666 ft 365 kts 197°
2026-05-06 00:35 -34.35323 150.85786 19076 ft 367 kts 197°
2026-05-06 00:35 -34.37800 150.84980 19509 ft 369 kts 197°
2026-05-06 00:35 -34.40292 150.84169 19941 ft 372 kts 197°
2026-05-06 00:36 -34.42795 150.83355 20380 ft 374 kts 197°
2026-05-06 00:36 -34.45316 150.82533 20824 ft 376 kts 197°
2026-05-06 00:36 -34.47852 150.81707 21279 ft 378 kts 198°
2026-05-06 00:36 -34.50397 150.80836 21740 ft 380 kts 200°
2026-05-06 00:37 -34.52846 150.79625 22188 ft 381 kts 209°
2026-05-06 00:37 -34.55063 150.77929 22610 ft 380 kts 220°
2026-05-06 00:37 -34.56997 150.75742 23037 ft 381 kts 230°
2026-05-06 00:37 -34.58578 150.73165 23479 ft 381 kts 238°
2026-05-06 00:38 -34.59973 150.70420 23882 ft 383 kts 241°
2026-05-06 00:38 -34.61290 150.67605 24253 ft 385 kts 243°
2026-05-06 00:38 -34.62577 150.64746 24615 ft 386 kts 243°
2026-05-06 00:38 -34.63860 150.61871 24991 ft 388 kts 243°
2026-05-06 00:39 -34.65153 150.58987 25371 ft 390 kts 243°
2026-05-06 00:39 -34.66464 150.56091 25767 ft 392 kts 243°
2026-05-06 00:39 -34.67791 150.53185 26161 ft 393 kts 243°
2026-05-06 00:39 -34.69127 150.50271 26562 ft 395 kts 243°
2026-05-06 00:40 -34.70469 150.47353 26958 ft 396 kts 243°
2026-05-06 00:40 -34.71816 150.44427 27364 ft 397 kts 242°
2026-05-06 00:40 -34.73165 150.41491 27772 ft 398 kts 243°
2026-05-06 00:40 -34.74516 150.38550 28203 ft 398 kts 243°
2026-05-06 00:41 -34.75848 150.35649 28626 ft 398 kts 243°
2026-05-06 00:41 -34.77199 150.32701 29058 ft 399 kts 243°
2026-05-06 00:41 -34.78551 150.29746 29388 ft 402 kts 243°
2026-05-06 00:41 -34.79915 150.26763 29685 ft 405 kts 243°
2026-05-06 00:42 -34.81290 150.23751 29960 ft 409 kts 243°
2026-05-06 00:42 -34.82674 150.20718 30245 ft 412 kts 243°
2026-05-06 00:42 -34.84074 150.17649 30484 ft 415 kts 243°
2026-05-06 00:42 -34.85479 150.14563 30723 ft 418 kts 243°
2026-05-06 00:43 -34.86897 150.11446 30969 ft 421 kts 243°
2026-05-06 00:43 -34.88325 150.08307 31203 ft 424 kts 243°
2026-05-06 00:43 -34.89758 150.05154 31447 ft 427 kts 243°
2026-05-06 00:43 -34.91198 150.01983 31696 ft 430 kts 243°
2026-05-06 00:44 -34.92650 149.98783 31941 ft 432 kts 243°
2026-05-06 00:44 -34.94092 149.95601 32200 ft 434 kts 243°
2026-05-06 00:44 -34.95555 149.92369 32455 ft 437 kts 243°
2026-05-06 00:44 -34.97029 149.89111 32711 ft 439 kts 243°
2026-05-06 00:45 -34.98507 149.85839 32964 ft 440 kts 243°
2026-05-06 00:45 -34.99992 149.82550 33226 ft 442 kts 243°
2026-05-06 00:45 -35.01459 149.79299 33486 ft 443 kts 243°
2026-05-06 00:45 -35.02952 149.75984 33753 ft 445 kts 243°
2026-05-06 00:46 -35.04452 149.72651 33809 ft 451 kts 243°
2026-05-06 00:46 -35.07505 149.65854 33977 ft 461 kts 243°
2026-05-06 00:46 -35.09054 149.62403 34078 ft 465 kts 243°
2026-05-06 00:47 -35.10596 149.58964 34195 ft 469 kts 243°
2026-05-06 00:47 -35.13721 149.51988 34216 ft 460 kts 243°
2026-05-06 00:48 -35.16803 149.45089 34226 ft 463 kts 243°
2026-05-06 00:48 -35.19895 149.38147 34227 ft 466 kts 243°
2026-05-06 00:49 -35.22991 149.31191 34238 ft 461 kts 243°
2026-05-06 00:49 -35.26048 149.24310 34233 ft 465 kts 243°
2026-05-06 00:50 -35.29462 149.17536 34240 ft 469 kts 237°
2026-05-06 00:50 -35.33289 149.11057 34237 ft 469 kts 236°
2026-05-06 00:51 -35.37128 149.04657 34205 ft 469 kts 236°
2026-05-06 00:51 -35.40995 148.98208 34204 ft 469 kts 236°
2026-05-06 00:52 -35.44842 148.91782 34211 ft 469 kts 236°
2026-05-06 00:52 -35.48710 148.85310 34198 ft 469 kts 236°
2026-05-06 00:53 -35.52563 148.78852 34196 ft 468 kts 236°
2026-05-06 00:53 -35.56383 148.72436 34193 ft 468 kts 236°
2026-05-06 00:54 -35.60224 148.65974 34182 ft 469 kts 236°
2026-05-06 00:54 -35.64067 148.59494 34192 ft 469 kts 236°
2026-05-06 00:55 -35.67906 148.53012 34184 ft 468 kts 236°
2026-05-06 00:55 -35.71732 148.46539 34185 ft 467 kts 237°
2026-05-06 00:56 -35.75538 148.40087 34187 ft 468 kts 237°
2026-05-06 00:56 -35.79362 148.33592 34194 ft 468 kts 237°
2026-05-06 00:57 -35.83178 148.27100 34187 ft 467 kts 237°
2026-05-06 00:57 -35.86965 148.20642 34196 ft 467 kts 237°
2026-05-06 00:58 -35.90774 148.14138 34209 ft 468 kts 237°
2026-05-06 00:58 -35.94586 148.07614 34204 ft 468 kts 237°
2026-05-06 00:59 -35.98382 148.01108 34212 ft 467 kts 237°
2026-05-06 00:59 -36.02174 147.94593 34210 ft 467 kts 237°
2026-05-06 01:00 -36.05963 147.88074 34222 ft 467 kts 238°
2026-05-06 01:00 -36.09753 147.81541 34225 ft 468 kts 238°
2026-05-06 01:01 -36.13543 147.74993 34222 ft 468 kts 238°
2026-05-06 01:01 -36.17315 147.68465 34225 ft 468 kts 238°
2026-05-06 01:02 -36.21103 147.61897 34229 ft 468 kts 238°
2026-05-06 01:02 -36.24855 147.55379 34225 ft 467 kts 238°
2026-05-06 01:03 -36.28621 147.48823 34108 ft 466 kts 238°
2026-05-06 01:03 -36.30494 147.45560 33618 ft 462 kts 238°
2026-05-06 01:03 -36.32336 147.42348 33375 ft 452 kts 238°
2026-05-06 01:03 -36.34138 147.39206 33199 ft 442 kts 238°
2026-05-06 01:04 -36.35899 147.36131 33007 ft 432 kts 239°
2026-05-06 01:04 -36.37621 147.33120 32752 ft 424 kts 239°
2026-05-06 01:04 -36.39322 147.30139 32357 ft 420 kts 239°
2026-05-06 01:04 -36.41001 147.27194 31929 ft 417 kts 239°
2026-05-06 01:05 -36.42677 147.24251 31499 ft 415 kts 239°
2026-05-06 01:05 -36.44338 147.21332 31067 ft 412 kts 238°
2026-05-06 01:05 -36.45989 147.18430 30639 ft 410 kts 238°
2026-05-06 01:05 -36.47610 147.15579 30232 ft 407 kts 238°
2026-05-06 01:06 -36.49240 147.12710 29762 ft 405 kts 239°
2026-05-06 01:06 -36.50859 147.09860 29292 ft 403 kts 239°
2026-05-06 01:06 -36.52470 147.07019 28850 ft 400 kts 239°
2026-05-06 01:06 -36.54068 147.04198 28391 ft 397 kts 239°
2026-05-06 01:07 -36.55657 147.01392 27936 ft 395 kts 239°
2026-05-06 01:07 -36.57238 146.98596 27489 ft 393 kts 239°
2026-05-06 01:07 -36.58811 146.95813 27026 ft 391 kts 239°
2026-05-06 01:07 -36.60350 146.93089 26630 ft 389 kts 239°
2026-05-06 01:08 -36.61907 146.90330 26203 ft 388 kts 239°
2026-05-06 01:08 -36.63455 146.87584 25758 ft 387 kts 239°
2026-05-06 01:08 -36.64998 146.84846 25346 ft 385 kts 239°
2026-05-06 01:08 -36.66533 146.82121 25016 ft 382 kts 239°
2026-05-06 01:09 -36.68049 146.79428 24664 ft 378 kts 239°
2026-05-06 01:09 -36.69556 146.76747 24269 ft 377 kts 239°
2026-05-06 01:09 -36.71061 146.74068 23877 ft 376 kts 239°
2026-05-06 01:09 -36.72540 146.71432 23441 ft 374 kts 239°
2026-05-06 01:10 -36.74026 146.68781 23006 ft 373 kts 239°
2026-05-06 01:10 -36.75512 146.66128 22555 ft 372 kts 239°
2026-05-06 01:10 -36.76995 146.63479 22086 ft 371 kts 239°
2026-05-06 01:10 -36.77973 146.61732 21812 ft 370 kts 239°
2026-05-06 01:11 -36.79445 146.59101 21417 ft 368 kts 239°
2026-05-06 01:11 -36.80907 146.56485 20987 ft 366 kts 239°
2026-05-06 01:11 -36.82365 146.53875 20543 ft 366 kts 239°
2026-05-06 01:11 -36.83811 146.51282 20154 ft 364 kts 239°
2026-05-06 01:12 -36.85255 146.48693 19754 ft 362 kts 240°
2026-05-06 01:12 -36.86695 146.46108 19370 ft 361 kts 240°
2026-05-06 01:12 -36.88107 146.43571 18973 ft 360 kts 240°
2026-05-06 01:12 -36.89553 146.40971 18536 ft 360 kts 240°
2026-05-06 01:13 -36.90973 146.38416 18127 ft 357 kts 240°
2026-05-06 01:13 -36.92370 146.35903 17713 ft 355 kts 240°
2026-05-06 01:13 -36.93772 146.33378 17336 ft 352 kts 240°
2026-05-06 01:13 -36.95160 146.30874 16958 ft 349 kts 240°
2026-05-06 01:14 -36.97902 146.25925 16248 ft 342 kts 240°
2026-05-06 01:14 -36.99248 146.23491 15876 ft 339 kts 240°
2026-05-06 01:14 -37.00588 146.21067 15477 ft 338 kts 240°
2026-05-06 01:15 -37.01902 146.18688 15097 ft 336 kts 240°
2026-05-06 01:15 -37.03228 146.16287 14735 ft 334 kts 240°
2026-05-06 01:15 -37.04543 146.13903 14359 ft 332 kts 239°
2026-05-06 01:15 -37.05849 146.11534 13978 ft 330 kts 239°
2026-05-06 01:16 -37.07145 146.09182 13585 ft 327 kts 239°
2026-05-06 01:16 -37.08431 146.06847 13217 ft 324 kts 239°
2026-05-06 01:16 -37.09706 146.04528 12843 ft 321 kts 239°
2026-05-06 01:16 -37.10962 146.02244 12593 ft 314 kts 239°
2026-05-06 01:17 -37.12180 146.00031 12484 ft 304 kts 239°
2026-05-06 01:17 -37.13360 145.97885 12334 ft 295 kts 239°
2026-05-06 01:17 -37.14515 145.95781 12060 ft 291 kts 239°
2026-05-06 01:17 -37.15656 145.93698 11738 ft 289 kts 239°
2026-05-06 01:18 -37.16789 145.91628 11422 ft 286 kts 239°
2026-05-06 01:18 -37.17900 145.89599 11113 ft 285 kts 239°
2026-05-06 01:18 -37.19018 145.87557 10803 ft 283 kts 239°
2026-05-06 01:18 -37.20125 145.85532 10514 ft 280 kts 239°
2026-05-06 01:19 -37.21224 145.83521 10200 ft 279 kts 239°
2026-05-06 01:19 -37.22318 145.81517 9873 ft 277 kts 239°
2026-05-06 01:19 -37.23405 145.79525 9508 ft 276 kts 239°
2026-05-06 01:19 -37.24490 145.77537 9144 ft 275 kts 238°
2026-05-06 01:20 -37.25570 145.75558 8795 ft 274 kts 238°
2026-05-06 01:20 -37.26644 145.73590 8449 ft 273 kts 238°
2026-05-06 01:20 -37.27712 145.71630 8124 ft 271 kts 238°
2026-05-06 01:20 -37.28774 145.69680 7785 ft 270 kts 238°
2026-05-06 01:21 -37.29834 145.67734 7421 ft 270 kts 238°
2026-05-06 01:21 -37.30919 145.65818 7086 ft 269 kts 237°
2026-05-06 01:21 -37.32016 145.63921 6731 ft 267 kts 236°
2026-05-06 01:21 -37.33108 145.62032 6318 ft 268 kts 236°
2026-05-06 01:22 -37.34202 145.60147 6048 ft 264 kts 236°
2026-05-06 01:22 -37.35245 145.58343 6012 ft 251 kts 236°
2026-05-06 01:22 -37.36248 145.56606 6000 ft 239 kts 236°
2026-05-06 01:22 -37.37207 145.54945 5934 ft 229 kts 236°
2026-05-06 01:23 -37.38117 145.53365 5791 ft 223 kts 236°
2026-05-06 01:23 -37.39022 145.51794 5607 ft 220 kts 236°
2026-05-06 01:23 -37.39913 145.50248 5406 ft 217 kts 236°
2026-05-06 01:23 -37.40799 145.48710 5154 ft 216 kts 237°
2026-05-06 01:24 -37.41681 145.47177 4921 ft 216 kts 236°
2026-05-06 01:24 -37.42566 145.45638 4656 ft 217 kts 236°
2026-05-06 01:24 -37.43452 145.44099 4389 ft 217 kts 237°
2026-05-06 01:24 -37.44340 145.42567 4145 ft 216 kts 236°
2026-05-06 01:25 -37.45350 145.41158 4012 ft 217 kts 227°
2026-05-06 01:25 -37.46471 145.39867 4001 ft 219 kts 225°
2026-05-06 01:25 -37.47613 145.38601 3999 ft 219 kts 225°
2026-05-06 01:25 -37.48747 145.37348 3999 ft 219 kts 224°
2026-05-06 01:26 -37.49892 145.36081 4000 ft 220 kts 224°
2026-05-06 01:26 -37.51045 145.34805 4000 ft 220 kts 225°
2026-05-06 01:26 -37.52196 145.33527 3980 ft 221 kts 225°
2026-05-06 01:26 -37.53348 145.32245 3977 ft 221 kts 224°
2026-05-06 01:27 -37.54510 145.30960 4015 ft 222 kts 225°
2026-05-06 01:27 -37.55665 145.29676 3989 ft 221 kts 225°
2026-05-06 01:27 -37.56818 145.28391 3989 ft 221 kts 225°
2026-05-06 01:27 -37.57958 145.27120 3991 ft 221 kts 225°
2026-05-06 01:28 -37.59113 145.25833 3988 ft 221 kts 224°
2026-05-06 01:28 -37.60260 145.24558 3987 ft 218 kts 224°
2026-05-06 01:28 -37.61396 145.23291 3957 ft 217 kts 224°
2026-05-06 01:28 -37.62534 145.22019 3702 ft 219 kts 225°
2026-05-06 01:29 -37.63672 145.20748 3517 ft 217 kts 224°
2026-05-06 01:29 -37.64797 145.19493 3295 ft 216 kts 225°
2026-05-06 01:29 -37.65927 145.18232 3061 ft 217 kts 225°
2026-05-06 01:29 -37.67052 145.16976 2992 ft 215 kts 225°
2026-05-06 01:30 -37.68158 145.15737 2985 ft 215 kts 224°
2026-05-06 01:30 -37.69281 145.14483 2981 ft 215 kts 225°
2026-05-06 01:30 -37.70402 145.13227 2984 ft 215 kts 224°
2026-05-06 01:30 -37.71522 145.11973 2984 ft 215 kts 224°
2026-05-06 01:31 -37.72627 145.10733 2989 ft 214 kts 225°
2026-05-06 01:31 -37.73743 145.09485 2987 ft 214 kts 225°
2026-05-06 01:31 -37.74861 145.08233 2983 ft 214 kts 225°
2026-05-06 01:31 -37.75975 145.06984 2982 ft 214 kts 225°
2026-05-06 01:32 -37.77090 145.05733 2982 ft 214 kts 225°
2026-05-06 01:32 -37.78205 145.04481 2985 ft 214 kts 224°
2026-05-06 01:32 -37.79322 145.03226 2995 ft 214 kts 225°
2026-05-06 01:32 -37.80417 145.01969 3006 ft 211 kts 229°
2026-05-06 01:33 -37.81285 145.00492 2991 ft 208 kts 246°
2026-05-06 01:33 -37.81751 144.98793 2984 ft 206 kts 257°
2026-05-06 01:33 -37.82072 144.97033 2984 ft 205 kts 259°
2026-05-06 01:33 -37.82367 144.95263 2989 ft 205 kts 260°
2026-05-06 01:34 -37.82607 144.93541 2985 ft 192 kts 262°
2026-05-06 01:34 -37.82813 144.91922 2996 ft 179 kts 263°
2026-05-06 01:34 -37.83000 144.90429 2996 ft 166 kts 263°
2026-05-06 01:34 -37.83112 144.89012 2994 ft 163 kts 272°
2026-05-06 01:35 -37.82806 144.87650 2982 ft 163 kts 300°
2026-05-06 01:35 -37.81962 144.86698 2988 ft 167 kts 332°
2026-05-06 01:35 -37.80829 144.86309 2981 ft 171 kts 345°
2026-05-06 01:35 -37.79709 144.86238 3077 ft 149 kts 357°
2026-05-06 01:36 -37.78731 144.86259 2996 ft 136 kts 353°
2026-05-06 01:36 -37.77751 144.86250 2844 ft 145 kts 349°
2026-05-06 01:36 -37.76748 144.86056 2794 ft 147 kts 343°
2026-05-06 01:36 -37.75723 144.85714 2500 ft 157 kts 342°
2026-05-06 01:37 -37.74644 144.85394 2146 ft 158 kts 344°
2026-05-06 01:37 -37.73574 144.85119 1758 ft 156 kts 346°
2026-05-06 01:37 -37.72504 144.84872 1370 ft 155 kts 348°
2026-05-06 01:37 -37.71460 144.84670 1122 ft 147 kts 348°
2026-05-06 01:38 -37.70465 144.84465 801 ft 144 kts 348°
2026-05-06 01:38 -37.69512 144.84282 571 ft 133 kts 350°
2026-05-06 01:38 -37.68627 144.84117 407 ft 128 kts 348°
2026-05-06 01:38 -37.67812 144.83951 361 ft 104 kts 353°
2026-05-06 01:39 -37.67279 144.83860 377 ft 54 kts 354°
2026-05-06 01:39 -37.67077 144.83837 383 ft 21 kts 12°
2026-05-06 01:39 -37.66945 144.83863 387 ft 17 kts 13°
2026-05-06 01:39 -37.66842 144.83912 387 ft 5 kts 20°
2026-05-06 01:40 -37.66841 144.83913 387 ft 0 kts 20°
2026-05-06 01:40 -37.66830 144.83918 387 ft 3 kts 20°
2026-05-06 01:40 -37.66828 144.83919 387 ft 0 kts 20°
2026-05-06 01:40 -37.66827 144.83919 387 ft 1 kts 20°
2026-05-06 01:41 -37.66812 144.83926 387 ft 3 kts 20°
2026-05-06 01:41 -37.66785 144.83941 387 ft 5 kts 26°
2026-05-06 01:41 -37.66749 144.83963 387 ft 7 kts 26°
2026-05-06 01:41 -37.66729 144.84010 386 ft 7 kts 71°
2026-05-06 01:42 -37.66722 144.84091 383 ft 11 kts 99°
2026-05-06 01:42 -37.66775 144.84180 379 ft 14 kts 148°
2026-05-06 01:42 -37.66837 144.84200 378 ft 9 kts 169°
2026-05-06 01:42 -37.66911 144.84215 377 ft 12 kts 173°
2026-05-06 01:43 -37.66999 144.84236 375 ft 14 kts 162°
2026-05-06 01:43 -37.67054 144.84327 376 ft 15 kts 86°
2026-05-06 01:43 -37.67028 144.84468 368 ft 16 kts 65°
2026-05-06 01:43 -37.67002 144.84587 368 ft 13 kts 58°
2026-05-06 01:44 -37.66972 144.84594 367 ft 3 kts 342°
2026-05-06 01:44 -37.66949 144.84587 363 ft 4 kts 352°
2026-05-06 01:44 -37.66918 144.84588 365 ft 4 kts